This is the latest recevied weather packets stored in our database for station/object KI6PPU. If no packets are shown the sender has not sent any weather packets the latest 10 day(s).
| Time | Temp. | Humidity | Pressure | Rain* | Wind** | Luminosity | Snow |
|---|---|---|---|---|---|---|---|
| 1778016132 | 15.56° C | 80% | 1017.8 hPa | 0 mm | - | 144 W/m² | - |
| 1778015829 | 15° C | 82% | 1018 hPa | 0 mm | - | 146 W/m² | - |
| 1778015526 | 15° C | 81% | 1018.1 hPa | 0 mm | - | 137 W/m² | - |
| 1778015223 | 15° C | 80% | 1018.1 hPa | 0 mm | - | 139 W/m² | - |
| 1778014919 | 15° C | 81% | 1017.8 hPa | 0 mm | - | 142 W/m² | - |
| 1778014617 | 15° C | 82% | 1017.9 hPa | 0 mm | - | 143 W/m² | - |
| 1778014315 | 15° C | 81% | 1017.8 hPa | 0 mm | - | 141 W/m² | - |
| 1778014011 | 15° C | 82% | 1018 hPa | 0 mm | - | 124 W/m² | - |
| 1778013709 | 15° C | 81% | 1018 hPa | 0 mm | - | 119 W/m² | - |
| 1778013406 | 15° C | 81% | 1017.9 hPa | 0 mm | - | 111 W/m² | - |
| 1778013103 | 15° C | 80% | 1017.8 hPa | 0 mm | - | 131 W/m² | - |
| 1778012798 | 14.44° C | 81% | 1018 hPa | 0 mm | - | 152 W/m² | - |
| 1778012495 | 15° C | 84% | 1018 hPa | 0 mm | - | 150 W/m² | - |
| 1778012191 | 15° C | 83% | 1017.8 hPa | 0 mm | - | 154 W/m² | - |
| 1778011890 | 15° C | 81% | 1018 hPa | 0 mm | - | 164 W/m² | - |
| 1778011587 | 15° C | 80% | 1018 hPa | 0 mm | - | 163 W/m² | - |
| 1778011284 | 15° C | 81% | 1017.9 hPa | 0 mm | - | 184 W/m² | - |
| 1778010980 | 15° C | 82% | 1018.1 hPa | 0 mm | - | 219 W/m² | - |
| 1778010678 | 15° C | 81% | 1018 hPa | 0 mm | - | 248 W/m² | - |
| 1778010375 | 15° C | 82% | 1018 hPa | 0 mm | - | 252 W/m² | - |
| 1778010070 | 14.44° C | 83% | 1018 hPa | 0 mm | - | 226 W/m² | - |
| 1778009768 | 15° C | 82% | 1017.9 hPa | 0 mm | - | 215 W/m² | - |
| 1778009464 | 15° C | 84% | 1018.1 hPa | 0 mm | - | 226 W/m² | - |
| 1778009164 | 15° C | 82% | 1018.1 hPa | 0 mm | - | 225 W/m² | - |
| 1778008860 | 15° C | 84% | 1018.2 hPa | 0 mm | - | 231 W/m² | - |
* Rain latest hour (hover to see other rain measurements)
** Current wind speed in m/s (hover to see current wind gust speed)